Home > Weather > Ivalo > Past weeks

Flag for Finland Past Weather in Ivalo, Finland — Yesterday and Last 2 Weeks

Now
64 °F

Sunny.


Feels Like: 64 °F
Forecast: 57 / 70 °F
Wind: 1 mph from Southeast

Location: Ivalo

Current Time: Jul 1, 2016 at 7:32:24 AM

Latest Report: Jul 1, 2016 at 6:50 AM


Visibility: 10 mi

Pressure: 29.86 "Hg

Humidity: 73%

Dew Point: 55 °F

Location of IvaloLocation

Past Weather in Ivalo — Graph

°F

Ivalo Temperature Yesterday

Maximum temperature yesterday: 73 °F (at 4:50 PM)
Minimum temperature yesterday: 57 °F (at 2:50 AM)
Average temperature yesterday: 65 °F

High & Low Weather Summary for the Past Weeks

 TemperatureHumidityPressure
High73 °F (Jun 16, 5:50 PM)100% (Jun 19, 5:50 AM)30.09 "Hg (Jun 19, 5:50 AM)
Low41 °F (Jun 20, 12:20 AM)25% (Jun 16, 5:50 PM)29.53 "Hg (Jun 19, 12:50 AM)
Average58 °F72%29.88 "Hg
* Reported Jun 16 6:20 AM — Jul 1 6:20 AM, Ivalo, Weather by CustomWeather, © 2016

Note: Actual official high and low records may vary slightly from our data, if they occured in-between our weather recording intervals... More about our weather records

Advertising

Ivalo Weather History for the Previous 24 Hours

Scroll right to see more
 ConditionsComfort  
Time TempWeatherWind HumidityBarometerVisibility
6:20 AM
Fri, Jul 1
64 °FSunny.3 mph73%29.86 "Hg10 mi
5:50 AM64 °FSunny.2 mph73%29.86 "Hg10 mi
5:20 AM61 °FSunny.No wind83%29.86 "Hg10 mi
4:50 AM59 °FSunny.No wind82%29.86 "Hg10 mi
4:20 AM59 °FSunny.1 mph88%29.86 "Hg10 mi
3:50 AM59 °FSunny.1 mph82%29.86 "Hg10 mi
3:20 AM61 °FSunny.3 mph77%29.86 "Hg10 mi
2:50 AM61 °FSunny.2 mph77%29.86 "Hg10 mi
2:20 AM63 °FSunny.3 mph73%29.86 "Hg10 mi
1:50 AM64 °FSunny.3 mph68%29.86 "Hg10 mi
1:20 AM64 °FSunny.3 mph68%29.86 "Hg10 mi
12:50 AM64 °FSunny.3 mph73%29.89 "Hg10 mi
12:20 AM66 °FSunny.1 mph68%29.89 "Hg10 mi
11:50 PM
Thu, Jun 30
66 °FSunny.1 mph68%29.86 "Hg10 mi
11:20 PM66 °FSunny.2 mph68%29.86 "Hg10 mi
10:50 PM66 °FPassing clouds.5 mph64%29.86 "HgN/A
10:20 PM68 °FPartly sunny.6 mph60%29.86 "HgN/A
9:50 PM68 °FSunny.2 mph60%29.86 "Hg10 mi
9:20 PM70 °FSunny.3 mph57%29.86 "Hg10 mi
8:50 PM70 °FPartly sunny.7 mph57%29.86 "HgN/A
8:20 PM72 °FPassing clouds.12 mph50%29.86 "HgN/A
7:50 PM72 °FSunny.8 mph50%29.86 "Hg10 mi
7:20 PM73 °FPassing clouds.8 mph50%29.86 "HgN/A
6:50 PM72 °FPassing clouds.6 mph50%29.86 "HgN/A
6:20 PM72 °FPassing clouds.7 mph50%29.86 "HgN/A
5:50 PM73 °FPassing clouds.8 mph47%29.86 "HgN/A
5:20 PM73 °FPassing clouds.9 mph44%29.86 "HgN/A
4:50 PM73 °FPartly sunny.7 mph47%29.89 "HgN/A
4:20 PM72 °FScattered clouds.8 mph53%29.89 "HgN/A
3:50 PM72 °FScattered clouds.9 mph53%29.89 "HgN/A
3:20 PM72 °FPassing clouds.9 mph50%29.89 "HgN/A
2:50 PM70 °FPassing clouds.8 mph57%29.89 "HgN/A
2:20 PM70 °FPassing clouds.8 mph57%29.89 "HgN/A
1:50 PM70 °FScattered clouds.9 mph57%29.89 "HgN/A
1:20 PM70 °FPartly sunny.8 mph57%29.92 "HgN/A
12:50 PM68 °FPartly sunny.7 mph64%29.92 "HgN/A
12:20 PM66 °FScattered clouds.5 mph64%29.92 "HgN/A
11:50 AM64 °FScattered clouds.7 mph73%29.92 "HgN/A
11:20 AM64 °FPartly sunny.6 mph73%29.92 "HgN/A
10:50 AM63 °FPartly sunny.6 mph77%29.92 "HgN/A
10:20 AM61 °FPassing clouds.5 mph88%29.92 "HgN/A
9:50 AM61 °FPartly sunny.5 mph88%29.92 "HgN/A
9:20 AM59 °FPartly sunny.3 mph94%29.92 "HgN/A
8:50 AM57 °FDrizzle. Low clouds.2 mph100%29.92 "HgN/A
8:20 AM57 °FLight rain. Low clouds.3 mph94%29.95 "HgN/A
7:20 AM57 °FLight rain. Mostly cloudy.2 mph94%29.95 "HgN/A
Weather by CustomWeather, © 2016

See weather overviewHow to use our weather pages